Location: Newark
(54.2500°N, 9.1833°E)
Time: 02:49:19
(UTC+00:00)

Vanguard 2 Rocket - Pass Details

Date: 17 December 2019
Orbit: 554 x 3326 km, 32.9° (Epoch: 23 January)

Event Time Altitude Azimuth Distance (km) Brightness Sun altitude
Rises 19:57:42 0° 262° (W) 6,159 11.8 -41.6°
Reaches altitude 10° 20:04:58 10° 241° (WSW) 4,459 10.7 -42.6°
Maximum altitude 20:09:49 14° 216° (SW) 3,651 10.0 -43.2°
Enters shadow 20:11:19 13° 207° (SSW) 3,520 9.9 -43.4°
